Main page
METAR-TAF:

METAR-TAF

Airports :

Qazvin Airport

Qazvin, Iran

latitude: 36-15N, longitude: 050-00E, elevation: 1278 m

Current weather observation

The report was made 17 minutes ago, at 14:00 UTC
Wind 10 kt from the Southeast
Temperature 38°C
Humidity 12%
Pressure 1005 hPa
Visibility 10 km or more
no clouds below 1500 m and no cumulonimbus

METAR: OIIK 181400Z 13010KT CAVOK 38/04 Q1005

Time: 18:47 (14:17 UTC)


TAF: missing

Weather observations and forecasts of more than 4000 airports (METAR and TAF reports).

The available stations are represented by yellow and red dots on the map.

Hover mouse over dot to see the name of the station.

Then click to see weather observations and forecasts.

To change the map : click on the green buttons with a black cross to zoom in, on the green button with a dash to zoom out, or on the green arrows for adjacent maps.


METAR-TAF: